Regional Weather Roundup
Issued by NWS

Home | Current Version | Previous Version | Graphics & Text | Print | Product List | Glossary On
Versions: 1 2 3 4 5 6 7 8 9 10 11 12 13 14 15 16 17 18 19 20 21 22 23 24 25 26 27 28 29 30 31 32 33 34 35 36 37 38 39 40 41 42 43 44 45 46 47 48 49 50
000
ASUS45 KPSR 270410
RWRAZ

ARIZONA HOURLY REGIONAL WEATHER ROUNDUP
NATIONAL WEATHER SERVICE PHOENIX AZ
900 PM MST MON JUN 26 2017

NOTE: FAIR INDICATES FEW OR NO CLOUDS BELOW 12,000 FEET WITH NO
SIGNIFICANT WEATHER AND/OR OBSTRUCTIONS TO VISIBILITY.

AZZ001>003-036-270500-
NORTHWEST ARIZONA

CITY           SKY/WX    TMP DP  RH WIND       PRES   REMARKS
BULLHEAD CITY  CLEAR    108  18   4 W12G22    29.68S
KINGMAN        CLEAR     89  22   8 SW8       29.94R
$$

AZZ004>008-015-016-018-270500-
NORTH CENTRAL ARIZONA

CITY           SKY/WX    TMP DP  RH WIND       PRES   REMARKS
GRAND CANYON   CLEAR     73  20  13 W6        30.22S
PRESCOTT       CLEAR     81  27  14 SW10      30.11S
FLAGSTAFF      CLEAR     74  20  13 W12       30.26R
PAYSON         PTCLDY    81  41  24 CALM      30.15S
PAGE           CLEAR     92  24   8 SW6       29.95R
$$

AZZ009>014-017-270500-
NORTHEAST ARIZONA

CITY           SKY/WX    TMP DP  RH WIND       PRES   REMARKS
WINSLOW        CLEAR     83  34  17 SW13      30.06R
SAINT JOHNS    PTCLDY    80  40  23 S10       30.14R
WINDOW ROCK    PTCLDY    71  33  24 NW3       30.20R
SHOW LOW       PTCLDY    70  41  35 S12       30.24R
$$

AZZ540-542>544-546-548-270500-
GREATER PHOENIX AREA

CITY           SKY/WX    TMP DP  RH WIND       PRES   REMARKS
PHOENIX        PTCLDY   105  38  10 W10       29.74R
BUCKEYE          N/A     99  28   8 NW7       29.76R
LUKE AFB       CLEAR    102  31   8 W6        29.74R
DEER VALLEY    CLEAR    103  27   7 NW9       29.77R
SCOTTSDALE     CLEAR    103  31   8 W3        29.79R
MESA-GATEWAY   PTCLDY   100  43  14 SW7       29.78S
CHANDLER       CLEAR    100  39  12 SW7       29.76R
$$

AZZ539-553-270500-
SOUTHWEST MARICOPA COUNTY AND PINAL COUNTY

CITY           SKY/WX    TMP DP  RH WIND       PRES   REMARKS
CASA GRANDE      N/A     98  49  18 W7        29.81
GILA BEND      CLEAR    104  34   9 SW14      29.74R
$$

AZZ503-504-507>509-270500-
SOUTHEAST ARIZONA

CITY           SKY/WX    TMP DP  RH WIND       PRES   REMARKS
TUCSON         CLEAR     98  45  16 N3        29.93R
DAVIS-MONTHAN  PTCLDY    96  44  16 NW8       29.92R
NOGALES        PTCLDY    80  58  46 CALM      30.07R
SIERRA VISTA   PTCLDY    81  39  22 S3        30.12R
DOUGLAS        PTCLDY    80  50  34 CALM      30.06R
SAFFORD        MOCLDY    89  44  20 E3        29.95R
$$

AZZ532-270500-
SOUTHWEST ARIZONA

CITY           SKY/WX    TMP DP  RH WIND       PRES   REMARKS
YUMA           CLEAR    102  32   8 NW12      29.74R
$$

CAZ041-043-047-048-061-525>527-560>570-270500-
SOUTHERN CALIFORNIA

CITY           SKY/WX    TMP DP  RH WIND       PRES   REMARKS
DOWNTOWN L.A.  CLEAR     74  57  55 W3        29.87F
L.A. AIRPORT   CLEAR     72  61  68 W5        29.88S
SAN DIEGO      CLEAR     72  66  81 N7        29.90S
BURBANK        CLEAR     84  50  30 CALM      29.89S
ONTARIO        CLEAR     85  51  31 SW7       29.90R
RIVERSIDE      CLEAR     85  44  23 VRB3      29.91R
PALM SPRINGS   CLEAR    101  25   7 E3        29.76S
EL CENTRO NAS  PTCLDY    99  20   6 W18       29.76R
IMPERIAL       PTCLDY    97  35  11 W14       29.74R
BLYTHE         PTCLDY   106  24   5 W14       29.73R
NEEDLES        PTCLDY   108   9   3 W15       29.72R
$$

NVZ020-UTZ003-270500-
SOUTHERN NEVADA-UTAH

CITY           SKY/WX    TMP DP  RH WIND       PRES   REMARKS
LAS VEGAS      CLEAR     98   4   3 S8G18     29.78S
SALT LAKE CITY MOCLDY    90  34  13 SE13      29.83F
$$

NMZ009-TXZ055-270500-
NEW MEXICO-WEST TEXAS

CITY           SKY/WX    TMP DP  RH WIND       PRES   REMARKS
ALBUQUERQUE    CLOUDY    70  51  51 SE17      30.19R
EL PASO        CLOUDY    86  62  44 E6        30.08R
$$


........................KEY........................
SKY/WX - SKY CONDITION/WEATHER
TMP    - TEMPERATURE IN FAHRENHEIT
DP     - DEW POINT IN FAHRENHEIT
RH     - RELATIVE HUMIDITY IN PERCENT
WIND   - DIRECTION AND SPEED IN MILES PER HOUR (MPH)
VRB    - VARIABLE WIND DIRECTION
PRES   - MEAN SEA LEVEL PRESSURE IN INCHES OF MERCURY
         F - FALLING PRESSURE   R - RISING PRESSURE
         S - STEADY PRESSURE
VSB    - VISIBILITY IN MILES
HX     - HEAT INDEX IN FAHRENHEIT
WCI    - WIND CHILL INDEX IN FAHRENHEIT
TC     - TEMPERATURE IN CELSIUS WHICH IS ALSO KNOWN AS
         TEMPERATURE IN CENTIGRADE
AFB    - AIR FORCE BASE
         LUKE AFB IS LUKE AIR FORCE BASE
         DAVIS-MONTHAN IS DAVIS-MONTHAN AIR FORCE BASE
NAS    - NAVAL AIR STATION
         EL CENTRO NAS IS EL CENTRO NAVAL AIR STATION
N/A    - NOT AVAILABLE





USA.gov is the U.S. government's official web portal to all federal, state and local government web resources and services.